Weather Service Report


369 
ASUS45 KSLC 302310
RWRUT 

UTAH REGIONAL WEATHER ROUNDUP
NATIONAL WEATHER SERVICE SALT LAKE CITY UT
500 PM MDT MON MAR 30 2015

UTZ001>011-023>025-310000-

NORTHERN UTAH
  
CITY           SKY/WX    TMP DP  RH WIND       PRES   REMARKS
BRIGHAM CITY   SUNNY     71  12  10 S3        30.12F                  
HILL AFB       SUNNY     70  17  13 N6        30.13F                  
LOGAN          SUNNY     70  18  13 SE3       30.12F                  
OGDEN          SUNNY     72  15  11 VRB3      30.11F                  
PROVO AIRPORT  MOSUNNY   70  25  18 VRB5      30.12F                  
SALT LAKE CITY MOSUNNY   73  15  11 NW7       30.11F                  
VERNAL         MOSUNNY   68  15  13 CALM      30.11F                  
WENDOVER       SUNNY     68  16  13 SE7       30.11F                  
HEBER CITY     SUNNY     72  19  14 SW13G18   30.14F                  
WEST JORDAN    SUNNY     72  30  21 NW3       30.13F                  

$$

UTZ012>022-026-027-310000-

SOUTHERN/CENTRAL UTAH
  
CITY           SKY/WX    TMP DP  RH WIND       PRES   REMARKS
BLANDING       PTSUNNY   68  26  20 N6        30.22F                  
BRYCE CANYON   CLOUDY    60  21  22 NW9       30.26S                  
CEDAR CITY     MOSUNNY   75  13   9 SW13G20   30.11F                  
DELTA          SUNNY     74  16  11 W6        30.10F                  
HANKSVILLE     MOSUNNY   81  19  10 NW5       30.05F                  
MILFORD        SUNNY     78  11   8 SW12G20   30.07F                  
MOAB/CYNLANDS  SUNNY     78  11   8 NW8       30.04F                  
PRICE          MOSUNNY   75  11   8 NW17G24   30.12F                  
ST GEORGE      CLEAR     84  27  12 W12       30.00F                  
KANAB          SUNNY     79  18  10 S9G17     30.12F                  

$$

REGIONAL REPORTS     COLORADO/ARIZONA
  
CITY           SKY/WX    TMP DP  RH WIND       PRES   REMARKS
CRAIG, CO      SUNNY     68  15  13 NW12G20   30.16F                  
GRAND JUNCTION SUNNY     76  15  10 NW14      30.07F                  
RIFLE          MOSUNNY   71  16  12 NW13      30.10F                  
MONTROSE       MOSUNNY   73  12   9 NW10G18   30.14F                  
CORTEZ         SUNNY     74  10   8 NW8G22    30.14F                  
PAGE, AZ       MOSUNNY   80  18  10 NE8       30.05F                  
GRAND CANYON   SUNNY     71  13  10 S8G17     30.20F                  
KINGMAN        SUNNY     84  13   7 SW10      30.03F                  
FLAGSTAFF      MOSUNNY   68  12  11 SW13      30.22F                  

$$

REGIONAL REPORTS    NEVADA/IDAHO/WYOMING
  
CITY           SKY/WX    TMP DP  RH WIND       PRES   REMARKS
LAS VEGAS, NV  MOSUNNY   90  19   7 SE9       29.91F                  
ELY            SUNNY     71  -1   6 S7        30.14F                  
ELKO           SUNNY     74  15  10 SW8G18    30.08F                  
POCATELLO, ID  SUNNY     72  18  13 NW9       30.10F                  
BURLEY         SUNNY     73  20  13 CALM      30.05F                  
EVANSTON, WY   MOSUNNY   64   6  10 W14G22    30.22F                  
ROCK SPRINGS   SUNNY     64   9  11 W15G23    30.18F                  
KEMMERER       SUNNY     61  10  13 W13G20    30.23F                  

$$

Return to Home page


Western Regional Climate Center, wrcc@dri.edu